POD1 KGCN-KHND

Flight info

Callsign POD1
Flight time 0h 35m
Altitude 18000
Route BOEGY BOEGY2
Aircraft CL60/M-SBDE1E2E3FGHIJ1J3J4J5J7M3P2RWXYZ/LB1V1D1

Departure

Time 2026-05-08 16:49
Airport Grand Canyon National Park Airport (KGCN)

Arrival

Time 2026-05-08 17:25
Airport Henderson Executive Airport (KHND)
Time Latitude Longitude Altitude Speed Heading
2026-05-08 16:25 35.95838 -112.13831 6611 ft 0 kts 217°
2026-05-08 16:43 35.95837 -112.13833 6610 ft 2 kts 230°
2026-05-08 16:44 35.95835 -112.13837 6610 ft 0 kts 250°
2026-05-08 16:44 35.95834 -112.13844 6610 ft 0 kts 262°
2026-05-08 16:45 35.95835 -112.13855 6610 ft 5 kts 296°
2026-05-08 16:45 35.95879 -112.13841 6611 ft 9 kts 41°
2026-05-08 16:46 35.95937 -112.13778 6612 ft 12 kts 41°
2026-05-08 16:46 35.96008 -112.13704 6615 ft 14 kts 40°
2026-05-08 16:46 35.96070 -112.13638 6616 ft 8 kts 36°
2026-05-08 16:46 35.96094 -112.13631 6616 ft 1 kts 353°
2026-05-08 16:47 35.96100 -112.13632 6616 ft 3 kts 342°
2026-05-08 16:47 35.96143 -112.13686 6616 ft 12 kts 308°
2026-05-08 16:47 35.96124 -112.13759 6615 ft 0 kts 218°
2026-05-08 16:48 35.96124 -112.13760 6615 ft 0 kts 218°
2026-05-08 16:48 35.95979 -112.13911 6610 ft 70 kts 221°
2026-05-08 16:48 35.95365 -112.14559 6589 ft 154 kts 223°
2026-05-08 16:49 35.94469 -112.15517 7001 ft 185 kts 222°
2026-05-08 16:49 35.93430 -112.16618 7600 ft 217 kts 223°
2026-05-08 16:49 35.92220 -112.17908 8287 ft 245 kts 223°
2026-05-08 16:49 35.90872 -112.19351 9040 ft 268 kts 223°
2026-05-08 16:50 35.89419 -112.20907 9679 ft 290 kts 223°
2026-05-08 16:50 35.87857 -112.22578 10009 ft 299 kts 223°
2026-05-08 16:50 35.86418 -112.24378 10666 ft 293 kts 238°
2026-05-08 16:50 35.85537 -112.26678 11417 ft 307 kts 258°
2026-05-08 16:51 35.85426 -112.29357 12201 ft 319 kts 279°
2026-05-08 16:51 35.85802 -112.32098 12932 ft 336 kts 282°
2026-05-08 16:51 35.86211 -112.34974 13673 ft 351 kts 281°
2026-05-08 16:51 35.86634 -112.37974 14508 ft 362 kts 281°
2026-05-08 16:52 35.87068 -112.41073 15487 ft 367 kts 282°
2026-05-08 16:52 35.87501 -112.44175 16458 ft 372 kts 282°
2026-05-08 16:52 35.87941 -112.47323 17270 ft 380 kts 282°
2026-05-08 16:52 35.88396 -112.50583 17566 ft 391 kts 282°
2026-05-08 16:53 35.89306 -112.57159 18085 ft 384 kts 282°
2026-05-08 16:53 35.89751 -112.60385 18269 ft 385 kts 282°
2026-05-08 16:53 35.90204 -112.63670 18279 ft 386 kts 282°
2026-05-08 16:54 35.90655 -112.66946 18279 ft 385 kts 281°
2026-05-08 16:54 35.91096 -112.70167 18282 ft 384 kts 282°
2026-05-08 16:54 35.91546 -112.73447 18285 ft 383 kts 281°
2026-05-08 16:54 35.91987 -112.76675 18285 ft 383 kts 281°
2026-05-08 16:55 35.92426 -112.79894 18284 ft 383 kts 281°
2026-05-08 16:55 35.92873 -112.83179 18281 ft 384 kts 281°
2026-05-08 16:55 35.93311 -112.86410 18287 ft 384 kts 281°
2026-05-08 16:55 35.93749 -112.89635 18289 ft 384 kts 281°
2026-05-08 16:56 35.94186 -112.92871 18290 ft 384 kts 281°
2026-05-08 16:56 35.94625 -112.96121 18293 ft 384 kts 282°
2026-05-08 16:56 35.95063 -112.99371 18294 ft 384 kts 282°
2026-05-08 16:56 35.95503 -113.02648 18288 ft 384 kts 281°
2026-05-08 16:57 35.95936 -113.05872 18284 ft 384 kts 281°
2026-05-08 16:57 35.96371 -113.09127 18280 ft 384 kts 282°
2026-05-08 16:57 35.96805 -113.12380 18279 ft 383 kts 281°
2026-05-08 16:57 35.97242 -113.15656 18265 ft 384 kts 281°
2026-05-08 16:58 35.97674 -113.18908 18259 ft 383 kts 281°
2026-05-08 16:58 35.98103 -113.22137 18260 ft 384 kts 281°
2026-05-08 16:58 35.98530 -113.25365 18245 ft 381 kts 281°
2026-05-08 16:58 35.98950 -113.28553 18238 ft 368 kts 281°
2026-05-08 16:59 35.99352 -113.31613 18234 ft 356 kts 281°
2026-05-08 16:59 35.99743 -113.34589 18230 ft 349 kts 282°
2026-05-08 16:59 36.00130 -113.37530 18213 ft 347 kts 282°
2026-05-08 16:59 36.00516 -113.40478 18170 ft 347 kts 282°
2026-05-08 17:00 36.00902 -113.43421 17976 ft 343 kts 282°
2026-05-08 17:00 36.01271 -113.46262 17840 ft 328 kts 282°
2026-05-08 17:00 36.01625 -113.48983 17713 ft 318 kts 282°
2026-05-08 17:00 36.01975 -113.51666 17595 ft 317 kts 281°
2026-05-08 17:01 36.02326 -113.54360 17465 ft 317 kts 281°
2026-05-08 17:01 36.02677 -113.57065 17341 ft 316 kts 281°
2026-05-08 17:01 36.03023 -113.59734 17162 ft 317 kts 281°
2026-05-08 17:01 36.03368 -113.62400 17024 ft 314 kts 281°
2026-05-08 17:02 36.03715 -113.65089 16891 ft 314 kts 281°
2026-05-08 17:02 36.04039 -113.67608 16773 ft 314 kts 281°
2026-05-08 17:02 36.04381 -113.70264 16649 ft 313 kts 281°
2026-05-08 17:02 36.04707 -113.72804 16532 ft 312 kts 281°
2026-05-08 17:03 36.05045 -113.75446 16409 ft 312 kts 281°
2026-05-08 17:03 36.05384 -113.78091 16270 ft 311 kts 281°
2026-05-08 17:03 36.05724 -113.80754 16138 ft 310 kts 281°
2026-05-08 17:03 36.06059 -113.83385 16007 ft 310 kts 281°
2026-05-08 17:04 36.06390 -113.85990 15866 ft 309 kts 281°
2026-05-08 17:04 36.06725 -113.88630 15709 ft 309 kts 281°
2026-05-08 17:04 36.07057 -113.91247 15454 ft 305 kts 281°
2026-05-08 17:04 36.07379 -113.93793 15190 ft 297 kts 281°
2026-05-08 17:05 36.07690 -113.96255 15058 ft 291 kts 281°
2026-05-08 17:05 36.08005 -113.98744 15043 ft 292 kts 281°
2026-05-08 17:05 36.08320 -114.01234 15044 ft 292 kts 281°
2026-05-08 17:05 36.08631 -114.03726 15036 ft 293 kts 279°
2026-05-08 17:06 36.08608 -114.06226 14944 ft 299 kts 261°
2026-05-08 17:06 36.07849 -114.08637 14632 ft 299 kts 246°
2026-05-08 17:06 36.06909 -114.10912 14331 ft 294 kts 246°
2026-05-08 17:06 36.06007 -114.13121 14047 ft 289 kts 246°
2026-05-08 17:07 36.05103 -114.15333 13757 ft 284 kts 246°
2026-05-08 17:07 36.04214 -114.17506 13469 ft 280 kts 246°
2026-05-08 17:07 36.03350 -114.19618 13194 ft 276 kts 246°
2026-05-08 17:07 36.02479 -114.21748 12908 ft 276 kts 246°
2026-05-08 17:08 36.01612 -114.23868 12624 ft 277 kts 246°
2026-05-08 17:08 36.00744 -114.25990 12343 ft 277 kts 246°
2026-05-08 17:08 35.99865 -114.28138 12058 ft 277 kts 246°
2026-05-08 17:08 35.99008 -114.30229 11797 ft 275 kts 246°
2026-05-08 17:09 35.98137 -114.32354 11533 ft 274 kts 246°
2026-05-08 17:09 35.97287 -114.34428 11263 ft 272 kts 246°
2026-05-08 17:09 35.96428 -114.36520 11002 ft 267 kts 246°
2026-05-08 17:09 35.95597 -114.38543 10743 ft 263 kts 246°
2026-05-08 17:10 35.94786 -114.40517 10488 ft 259 kts 246°
2026-05-08 17:10 35.93969 -114.42506 10231 ft 255 kts 246°
2026-05-08 17:10 35.93170 -114.44450 9986 ft 255 kts 246°
2026-05-08 17:10 35.92360 -114.46421 9730 ft 257 kts 246°
2026-05-08 17:11 35.91555 -114.48378 9477 ft 257 kts 246°
2026-05-08 17:11 35.90747 -114.50341 9221 ft 256 kts 246°
2026-05-08 17:11 35.89934 -114.52313 8963 ft 255 kts 246°
2026-05-08 17:11 35.89141 -114.54238 8720 ft 254 kts 246°
2026-05-08 17:12 35.88341 -114.56177 8468 ft 250 kts 246°
2026-05-08 17:12 35.87559 -114.58070 8217 ft 246 kts 245°
2026-05-08 17:12 35.86789 -114.59933 7974 ft 242 kts 245°
2026-05-08 17:12 35.86029 -114.61771 7737 ft 238 kts 245°
2026-05-08 17:13 35.85291 -114.63556 7499 ft 234 kts 245°
2026-05-08 17:13 35.84557 -114.65328 7282 ft 226 kts 245°
2026-05-08 17:13 35.83855 -114.67020 7038 ft 214 kts 245°
2026-05-08 17:13 35.83311 -114.68672 6848 ft 201 kts 255°
2026-05-08 17:14 35.82921 -114.70319 6882 ft 201 kts 256°
2026-05-08 17:14 35.82521 -114.71979 6804 ft 204 kts 255°
2026-05-08 17:14 35.82111 -114.73677 6627 ft 203 kts 255°
2026-05-08 17:14 35.81708 -114.75340 6500 ft 202 kts 255°
2026-05-08 17:15 35.81309 -114.76988 6381 ft 202 kts 255°
2026-05-08 17:15 35.80904 -114.78656 6261 ft 203 kts 255°
2026-05-08 17:15 35.80499 -114.80322 6138 ft 203 kts 255°
2026-05-08 17:15 35.80094 -114.81988 6010 ft 203 kts 255°
2026-05-08 17:16 35.79691 -114.83644 5961 ft 202 kts 255°
2026-05-08 17:16 35.79287 -114.85300 5967 ft 203 kts 255°
2026-05-08 17:16 35.78881 -114.86964 5968 ft 202 kts 255°
2026-05-08 17:16 35.78474 -114.88631 5970 ft 203 kts 255°
2026-05-08 17:17 35.78112 -114.90311 5969 ft 202 kts 259°
2026-05-08 17:17 35.77840 -114.92014 5963 ft 202 kts 261°
2026-05-08 17:17 35.77629 -114.93729 5955 ft 201 kts 266°
2026-05-08 17:17 35.77525 -114.95453 5957 ft 201 kts 268°
2026-05-08 17:18 35.77433 -114.97173 5960 ft 201 kts 268°
2026-05-08 17:18 35.77338 -114.98900 5958 ft 201 kts 268°
2026-05-08 17:18 35.77241 -115.00628 5966 ft 201 kts 268°
2026-05-08 17:18 35.77143 -115.02354 5975 ft 202 kts 268°
2026-05-08 17:19 35.77053 -115.04085 5980 ft 202 kts 268°
2026-05-08 17:19 35.76958 -115.05813 5987 ft 202 kts 268°
2026-05-08 17:19 35.76913 -115.07503 5959 ft 194 kts 278°
2026-05-08 17:19 35.77303 -115.09068 5720 ft 185 kts 298°
2026-05-08 17:20 35.78027 -115.10298 5430 ft 172 kts 315°
2026-05-08 17:20 35.78897 -115.11272 5410 ft 169 kts 322°
2026-05-08 17:20 35.79923 -115.12025 5394 ft 175 kts 332°
2026-05-08 17:20 35.81036 -115.12638 5218 ft 174 kts 339°
2026-05-08 17:21 35.82159 -115.13129 5140 ft 170 kts 340°
2026-05-08 17:21 35.83327 -115.13479 5130 ft 173 kts 349°
2026-05-08 17:21 35.84504 -115.13638 5009 ft 164 kts 356°
2026-05-08 17:21 35.85600 -115.13681 4908 ft 153 kts
2026-05-08 17:22 35.86681 -115.13681 4742 ft 154 kts 359°
2026-05-08 17:22 35.87741 -115.13671 4497 ft 154 kts
2026-05-08 17:22 35.88826 -115.13641 4258 ft 152 kts 359°
2026-05-08 17:22 35.89861 -115.13624 3996 ft 147 kts
2026-05-08 17:23 35.90878 -115.13605 3710 ft 145 kts 359°
2026-05-08 17:23 35.91893 -115.13589 3461 ft 146 kts 358°
2026-05-08 17:23 35.92903 -115.13586 3228 ft 147 kts 358°
2026-05-08 17:23 35.93931 -115.13584 3008 ft 146 kts 357°
2026-05-08 17:24 35.94956 -115.13575 2799 ft 145 kts 359°
2026-05-08 17:24 35.95961 -115.13560 2593 ft 144 kts 359°
2026-05-08 17:24 35.96938 -115.13548 2455 ft 130 kts
2026-05-08 17:24 35.97654 -115.13539 2425 ft 68 kts
2026-05-08 17:25 35.97973 -115.13534 2413 ft 33 kts
2026-05-08 17:25 35.98031 -115.13606 2411 ft 9 kts 265°
2026-05-08 17:25 35.98030 -115.13625 2411 ft 0 kts 266°
2026-05-08 17:26 35.98025 -115.13676 2412 ft 13 kts 228°
2026-05-08 17:27 35.97935 -115.13693 2415 ft 10 kts 216°
2026-05-08 17:27 35.97926 -115.13805 2414 ft 17 kts 270°
2026-05-08 17:27 35.97872 -115.13856 2416 ft 11 kts 182°
2026-05-08 17:27 35.97809 -115.13816 2419 ft 9 kts 162°
2026-05-08 17:28 35.97774 -115.13814 2420 ft 0 kts 180°